| time (UTC) | temp F | wind direction | speed MPH | gust MPH | rain 1hr in | rain 24hr in | rain mn in | humidity % | barometer mb |
| 20260906231428 | 54 | 0 | 0.0 | 1.0 | 0.00 | 0.00 | 0.00 | 80 | 1016.2 |
| 20260906230928 | 54 | 0 | 0.0 | 1.0 | 0.00 | 0.00 | 0.00 | 81 | 1016.2 |
| 20260906230420 | 55 | 0 | 0.0 | 2.0 | 0.00 | 0.00 | 0.00 | 80 | 1016.1 |
| 20260906225919 | 56 | 0 | 0.0 | 2.0 | 0.00 | 0.00 | 0.00 | 78 | 1016.1 |
| 20260906225418 | 56 | 0 | 0.0 | 2.0 | 0.00 | 0.00 | 0.00 | 76 | 1016.1 |
| 20260906224916 | 57 | 0 | 1.0 | 5.0 | 0.00 | 0.00 | 0.00 | 73 | 1016.1 |
| 20260906224414 | 58 | 0 | 2.0 | 5.0 | 0.00 | 0.00 | 0.00 | 68 | 1016.2 |
| 20260906223914 | 59 | 15 | 2.0 | 4.0 | 0.00 | 0.00 | 0.00 | 69 | 1016.1 |
| 20260906223413 | 60 | 38 | 2.0 | 4.0 | 0.00 | 0.00 | 0.00 | 67 | 1016.0 |
| 20260906222912 | 61 | 5 | 2.0 | 10.0 | 0.00 | 0.00 | 0.00 | 64 | 1016.1 |
| 20260906222411 | 62 | 22 | 3.0 | 10.0 | 0.00 | 0.00 | 0.00 | 62 | 1016.1 |
| 20260906221912 | 62 | 345 | 4.0 | 11.0 | 0.00 | 0.00 | 0.00 | 56 | 1016.1 |
| 20260906221412 | 63 | 31 | 4.0 | 11.0 | 0.00 | 0.00 | 0.00 | 57 | 1016.2 |
| 20260906220912 | 63 | 47 | 3.0 | 9.0 | 0.00 | 0.00 | 0.00 | 57 | 1016.2 |
| 20260906215912 | 64 | 26 | 4.0 | 11.0 | 0.00 | 0.00 | 0.00 | 58 | 1016.0 |
| 20260906215413 | 64 | 74 | 5.0 | 15.0 | 0.00 | 0.00 | 0.00 | 55 | 1016.0 |
| 20260906215130 | 64 | 25 | 5.0 | 15.0 | 0.00 | 0.00 | 0.00 | 55 | 1015.9 |
| 20260906214403 | 64 | 331 | 5.0 | 13.0 | 0.00 | 0.00 | 0.00 | 58 | 1015.9 |
| 20260906214122 | 64 | 15 | 3.0 | 8.0 | 0.00 | 0.00 | 0.00 | 64 | 1015.9 |
| 20260906213403 | 63 | 51 | 2.0 | 8.0 | 0.00 | 0.00 | 0.00 | 62 | 1015.8 |
| 20260906213126 | 63 | 41 | 3.0 | 12.0 | 0.00 | 0.00 | 0.00 | 59 | 1015.9 |
| 20260906212401 | 64 | 69 | 3.0 | 12.0 | 0.00 | 0.00 | 0.00 | 58 | 1015.9 |
| 20260906211902 | 65 | 19 | 3.0 | 9.0 | 0.00 | 0.00 | 0.00 | 59 | 1015.9 |
| 20260906211401 | 65 | 40 | 2.0 | 7.0 | 0.00 | 0.00 | 0.00 | 59 | 1015.9 |
| 20260906210901 | 65 | 20 | 3.0 | 10.0 | 0.00 | 0.00 | 0.00 | 55 | 1015.8 |
| 20260906210401 | 66 | 26 | 3.0 | 10.0 | 0.00 | 0.00 | 0.00 | 54 | 1015.8 |
| 20260906205902 | 66 | 24 | 3.0 | 7.0 | 0.00 | 0.00 | 0.00 | 54 | 1015.8 |
| 20260906205402 | 66 | 28 | 4.0 | 13.0 | 0.00 | 0.00 | 0.00 | 53 | 1015.7 |
| 20260906204902 | 67 | 31 | 3.0 | 13.0 | 0.00 | 0.00 | 0.00 | 55 | 1015.6 |
| 20260906204402 | 67 | 31 | 4.0 | 11.0 | 0.00 | 0.00 | 0.00 | 59 | 1015.6 |
| 20260906203902 | 67 | 10 | 4.0 | 11.0 | 0.00 | 0.00 | 0.00 | 55 | 1015.5 |
| 20260906203402 | 67 | 74 | 4.0 | 12.0 | 0.00 | 0.00 | 0.00 | 56 | 1015.5 |
| 20260906202902 | 67 | 344 | 5.0 | 12.0 | 0.00 | 0.00 | 0.00 | 57 | 1015.6 |
| 20260906202401 | 67 | 94 | 5.0 | 12.0 | 0.00 | 0.00 | 0.00 | 55 | 1015.6 |
| 20260906201901 | 67 | 23 | 5.0 | 11.0 | 0.00 | 0.00 | 0.00 | 55 | 1015.6 |
| 20260906201401 | 68 | 76 | 5.0 | 11.0 | 0.00 | 0.00 | 0.00 | 57 | 1015.6 |
| 20260906200902 | 67 | 69 | 5.0 | 12.0 | 0.00 | 0.00 | 0.00 | 56 | 1015.7 |
| 20260906200626 | 67 | 121 | 5.0 | 12.0 | 0.00 | 0.00 | 0.00 | 55 | 1015.6 |
| 20260906195901 | 67 | 24 | 3.0 | 11.0 | 0.00 | 0.00 | 0.00 | 57 | 1015.6 |
| 20260906195621 | 65 | 44 | 3.0 | 8.0 | 0.00 | 0.00 | 0.00 | 59 | 1015.5 |
| 20260906194902 | 65 | 5 | 4.0 | 11.0 | 0.00 | 0.00 | 0.00 | 56 | 1015.5 |
| 20260906194401 | 66 | 345 | 4.0 | 12.0 | 0.00 | 0.00 | 0.00 | 58 | 1015.5 |
| 20260906193901 | 68 | 48 | 5.0 | 12.0 | 0.00 | 0.00 | 0.00 | 54 | 1015.5 |
| 20260906193401 | 68 | 348 | 4.0 | 11.0 | 0.00 | 0.00 | 0.00 | 61 | 1015.5 |
| 20260906192902 | 66 | 308 | 2.0 | 11.0 | 0.00 | 0.00 | 0.00 | 62 | 1015.6 |
| 20260906192401 | 65 | 5 | 2.0 | 8.0 | 0.00 | 0.00 | 0.00 | 59 | 1015.6 |
| 20260906191902 | 66 | 319 | 4.0 | 10.0 | 0.00 | 0.00 | 0.00 | 55 | 1015.6 |
| 20260906191402 | 67 | 5 | 3.0 | 11.0 | 0.00 | 0.00 | 0.00 | 59 | 1015.6 |
| 20260906190902 | 67 | 32 | 3.0 | 11.0 | 0.00 | 0.00 | 0.00 | 56 | 1015.7 |
| 20260906190403 | 67 | 86 | 4.0 | 10.0 | 0.00 | 0.00 | 0.00 | 60 | 1015.7 |
| 20260906185901 | 67 | 74 | 4.0 | 9.0 | 0.00 | 0.00 | 0.00 | 59 | 1015.7 |
| 20260906185355 | 65 | 72 | 3.0 | 12.0 | 0.00 | 0.00 | 0.00 | 58 | 1015.6 |
| 20260906184855 | 67 | 0 | 4.0 | 12.0 | 0.00 | 0.00 | 0.00 | 55 | 1015.7 |
| 20260906184356 | 67 | 313 | 6.0 | 12.0 | 0.00 | 0.00 | 0.00 | 56 | 1015.8 |
| 20260906183855 | 67 | 36 | 6.0 | 15.0 | 0.00 | 0.00 | 0.00 | 55 | 1015.9 |
| 20260906183357 | 66 | 94 | 5.0 | 15.0 | 0.00 | 0.00 | 0.00 | 52 | 1016.0 |
| 20260906183115 | 65 | 61 | 5.0 | 15.0 | 0.00 | 0.00 | 0.00 | 55 | 1016.0 |
| 20260906182355 | 65 | 11 | 6.0 | 15.0 | 0.00 | 0.00 | 0.00 | 54 | 1016.0 |
| 20260906181854 | 66 | 112 | 6.0 | 14.0 | 0.00 | 0.00 | 0.00 | 53 | 1016.0 |
| 20260906181351 | 67 | 347 | 6.0 | 14.0 | 0.00 | 0.00 | 0.00 | 52 | 1016.0 |
| 20260906180851 | 67 | 30 | 5.0 | 13.0 | 0.00 | 0.00 | 0.00 | 54 | 1016.1 |
| 20260906180354 | 66 | 181 | 5.0 | 14.0 | 0.00 | 0.00 | 0.00 | 59 | 1016.1 |
| 20260906175853 | 66 | 12 | 5.0 | 14.0 | 0.00 | 0.00 | 0.00 | 56 | 1016.1 |
| 20260906174851 | 65 | 148 | 5.0 | 12.0 | 0.00 | 0.00 | 0.00 | 60 | 1016.1 |
| 20260906174346 | 65 | 27 | 5.0 | 12.0 | 0.00 | 0.00 | 0.00 | 60 | 1016.1 |
| 20260906173845 | 65 | 344 | 4.0 | 12.0 | 0.00 | 0.00 | 0.00 | 56 | 1016.2 |
| 20260906173346 | 66 | 44 | 3.0 | 10.0 | 0.00 | 0.00 | 0.00 | 61 | 1016.4 |
| 20260906173101 | 66 | 75 | 4.0 | 10.0 | 0.00 | 0.00 | 0.00 | 59 | 1016.2 |
| 20260906172344 | 66 | 351 | 5.0 | 12.0 | 0.00 | 0.00 | 0.00 | 61 | 1016.4 |
| 20260906171844 | 66 | 333 | 5.0 | 15.0 | 0.00 | 0.00 | 0.00 | 62 | 1016.4 |
| 20260906171341 | 66 | 355 | 5.0 | 15.0 | 0.00 | 0.00 | 0.00 | 62 | 1016.4 |
| 20260906170842 | 66 | 292 | 4.0 | 10.0 | 0.00 | 0.00 | 0.00 | 62 | 1016.2 |
| 20260906170341 | 64 | 288 | 4.0 | 12.0 | 0.00 | 0.00 | 0.00 | 68 | 1016.4 |
| 20260906165841 | 63 | 80 | 4.0 | 12.0 | 0.00 | 0.00 | 0.00 | 67 | 1016.4 |
| 20260906165342 | 64 | 41 | 3.0 | 9.0 | 0.00 | 0.00 | 0.00 | 66 | 1016.2 |
| 20260906164843 | 64 | 123 | 4.0 | 12.0 | 0.00 | 0.00 | 0.00 | 68 | 1016.2 |
| 20260906164343 | 65 | 331 | 5.0 | 12.0 | 0.00 | 0.00 | 0.00 | 61 | 1016.2 |
| 20260906164101 | 65 | 179 | 4.0 | 11.0 | 0.00 | 0.00 | 0.00 | 63 | 1016.2 |
| 20260906163602 | 64 | 101 | 4.0 | 9.0 | 0.00 | 0.00 | 0.00 | 67 | 1016.2 |
| 20260906163050 | 63 | 64 | 4.0 | 12.0 | 0.00 | 0.00 | 0.00 | 67 | 1016.2 |
| 20260906162551 | 63 | 5 | 5.0 | 12.0 | 0.00 | 0.00 | 0.00 | 67 | 1016.4 |
| 20260906161818 | 63 | 5 | 4.0 | 12.0 | 0.00 | 0.00 | 0.00 | 67 | 1016.4 |
| 20260906161308 | 63 | 324 | 3.0 | 12.0 | 0.00 | 0.00 | 0.00 | 67 | 1016.5 |
| 20260906161025 | 62 | 16 | 3.0 | 9.0 | 0.00 | 0.00 | 0.00 | 70 | 1016.4 |
| 20260906160256 | 62 | 79 | 3.0 | 9.0 | 0.00 | 0.00 | 0.00 | 68 | 1016.4 |
| 20260906155503 | 63 | 81 | 3.0 | 10.0 | 0.00 | 0.00 | 0.00 | 70 | 1016.4 |
| 20260906154741 | 62 | 90 | 3.0 | 10.0 | 0.00 | 0.00 | 0.00 | 68 | 1016.4 |
| 20260906154241 | 62 | 0 | 4.0 | 11.0 | 0.00 | 0.00 | 0.00 | 70 | 1016.4 |
| 20260906153741 | 62 | 48 | 5.0 | 11.0 | 0.00 | 0.00 | 0.00 | 69 | 1016.5 |
| 20260906153516 | 63 | 40 | 4.0 | 12.0 | 0.00 | 0.00 | 0.00 | 65 | 1016.5 |
| 20260906152741 | 64 | 344 | 4.0 | 12.0 | 0.00 | 0.00 | 0.00 | 65 | 1016.4 |
| 20260906152241 | 63 | 94 | 4.0 | 10.0 | 0.00 | 0.00 | 0.00 | 70 | 1016.5 |
| 20260906152003 | 63 | 292 | 3.0 | 9.0 | 0.00 | 0.00 | 0.00 | 71 | 1016.5 |
| 20260906151501 | 63 | 103 | 4.0 | 10.0 | 0.00 | 0.00 | 0.00 | 76 | 1016.6 |
| 20260906150738 | 62 | 43 | 4.0 | 10.0 | 0.00 | 0.00 | 0.00 | 73 | 1016.7 |
| 20260906150239 | 59 | 355 | 3.0 | 8.0 | 0.00 | 0.00 | 0.00 | 77 | 1016.7 |
| 20260906145739 | 59 | 30 | 3.0 | 8.0 | 0.00 | 0.00 | 0.00 | 77 | 1016.7 |
| 20260906145237 | 59 | 327 | 3.0 | 8.0 | 0.00 | 0.00 | 0.00 | 76 | 1016.7 |
| 20260906144737 | 60 | 36 | 3.0 | 9.0 | 0.00 | 0.00 | 0.00 | 78 | 1016.7 |
| 20260906144236 | 60 | 55 | 3.0 | 9.0 | 0.00 | 0.00 | 0.00 | 78 | 1016.6 |
| 20260906143733 | 59 | 302 | 3.0 | 8.0 | 0.00 | 0.00 | 0.00 | 79 | 1016.6 |
| 20260906143233 | 60 | 56 | 2.0 | 6.0 | 0.00 | 0.00 | 0.00 | 81 | 1016.6 |
| 20260906142733 | 59 | 54 | 2.0 | 8.0 | 0.00 | 0.00 | 0.00 | 81 | 1016.7 |
| 20260906142233 | 59 | 275 | 2.0 | 8.0 | 0.00 | 0.00 | 0.00 | 81 | 1016.6 |
| 20260906141733 | 59 | 322 | 4.0 | 10.0 | 0.00 | 0.00 | 0.00 | 81 | 1016.5 |
| 20260906141502 | 59 | 321 | 4.0 | 10.0 | 0.00 | 0.00 | 0.00 | 80 | 1016.5 |
| 20260906140733 | 59 | 9 | 4.0 | 10.0 | 0.00 | 0.00 | 0.00 | 81 | 1016.4 |
| 20260906140233 | 59 | 343 | 2.0 | 9.0 | 0.00 | 0.00 | 0.00 | 81 | 1016.2 |
| 20260906135733 | 59 | 63 | 2.0 | 5.0 | 0.00 | 0.00 | 0.00 | 82 | 1016.4 |
| 20260906135233 | 58 | 44 | 2.0 | 9.0 | 0.00 | 0.00 | 0.00 | 84 | 1016.1 |
| 20260906134956 | 58 | 46 | 2.0 | 9.0 | 0.00 | 0.00 | 0.00 | 84 | 1016.1 |
| 20260906134458 | 58 | 142 | 1.0 | 5.0 | 0.00 | 0.00 | 0.00 | 86 | 1016.2 |
| 20260906133732 | 58 | 100 | 3.0 | 11.0 | 0.00 | 0.00 | 0.00 | 83 | 1016.1 |
| 20260906133231 | 58 | 99 | 4.0 | 11.0 | 0.00 | 0.00 | 0.00 | 83 | 1016.1 |
| 20260906132728 | 59 | 54 | 3.0 | 7.0 | 0.00 | 0.00 | 0.00 | 83 | 1016.0 |
| 20260906132443 | 58 | 57 | 3.0 | 6.0 | 0.00 | 0.00 | 0.00 | 85 | 1016.0 |
| 20260906131719 | 58 | 118 | 2.0 | 6.0 | 0.00 | 0.00 | 0.00 | 85 | 1016.0 |
| 20260906131219 | 58 | 30 | 3.0 | 10.0 | 0.00 | 0.00 | 0.00 | 86 | 1016.0 |
| 20260906130719 | 58 | 141 | 2.0 | 10.0 | 0.00 | 0.00 | 0.00 | 84 | 1015.9 |
| 20260906130443 | 58 | 64 | 2.0 | 5.0 | 0.00 | 0.00 | 0.00 | 85 | 1015.8 |
| 20260906125719 | 57 | 51 | 2.0 | 5.0 | 0.00 | 0.00 | 0.00 | 87 | 1015.8 |
| 20260906125442 | 57 | 9 | 3.0 | 10.0 | 0.00 | 0.00 | 0.00 | 87 | 1015.7 |
| 20260906124720 | 57 | 0 | 4.0 | 10.0 | 0.00 | 0.00 | 0.00 | 88 | 1015.7 |
| 20260906124218 | 56 | 331 | 3.0 | 10.0 | 0.00 | 0.00 | 0.00 | 90 | 1015.7 |
| 20260906123718 | 56 | 355 | 3.0 | 11.0 | 0.00 | 0.00 | 0.00 | 91 | 1015.8 |
| 20260906123218 | 56 | 27 | 4.0 | 11.0 | 0.00 | 0.00 | 0.00 | 93 | 1015.8 |
| 20260906122719 | 55 | 19 | 4.0 | 10.0 | 0.00 | 0.00 | 0.00 | 95 | 1015.9 |
| 20260906122219 | 54 | 24 | 2.0 | 9.0 | 0.00 | 0.00 | 0.00 | 97 | 1015.9 |
| 20260906121719 | 53 | 5 | 1.0 | 5.0 | 0.00 | 0.00 | 0.00 | 98 | 1015.8 |
| 20260906121219 | 53 | 257 | 1.0 | 3.0 | 0.00 | 0.00 | 0.00 | 98 | 1015.8 |
| 20260906120719 | 52 | 214 | 1.0 | 2.0 | 0.00 | 0.00 | 0.00 | 98 | 1015.7 |
| 20260906120217 | 51 | 214 | 1.0 | 4.0 | 0.00 | 0.00 | 0.00 | 98 | 1015.6 |
| 20260906115942 | 51 | 214 | 2.0 | 4.0 | 0.00 | 0.00 | 0.00 | 98 | 1015.5 |
| 20260906115213 | 51 | 197 | 2.0 | 3.0 | 0.00 | 0.00 | 0.00 | 98 | 1015.5 |
| 20260906114713 | 50 | 197 | 2.0 | 3.0 | 0.00 | 0.00 | 0.00 | 98 | 1015.3 |
| 20260906113713 | 50 | 197 | 2.0 | 4.0 | 0.00 | 0.00 | 0.00 | 98 | 1015.2 |
| 20260906113212 | 49 | 197 | 2.0 | 4.0 | 0.00 | 0.00 | 0.00 | 98 | 1015.2 |
| 20260906112711 | 49 | 196 | 1.0 | 3.0 | 0.00 | 0.00 | 0.00 | 98 | 1015.2 |
| 20260906112211 | 49 | 89 | 0.0 | 2.0 | 0.00 | 0.00 | 0.00 | 98 | 1015.2 |
| 20260906111711 | 49 | 89 | 0.0 | 2.0 | 0.00 | 0.00 | 0.00 | 98 | 1015.2 |
| 20260906111439 | 49 | 89 | 0.0 | 1.0 | 0.00 | 0.00 | 0.00 | 98 | 1015.2 |
| 20260906110710 | 49 | 89 | 0.0 | 1.0 | 0.00 | 0.00 | 0.00 | 98 | 1015.1 |
| 20260906110208 | 48 | 89 | 0.0 | 2.0 | 0.00 | 0.00 | 0.00 | 97 | 1014.9 |
| 20260906105709 | 49 | 89 | 0.0 | 2.0 | 0.00 | 0.00 | 0.00 | 97 | 1014.9 |
| 20260906105210 | 49 | 88 | 1.0 | 4.0 | 0.00 | 0.00 | 0.00 | 97 | 1014.9 |
| 20260906104708 | 49 | 88 | 1.0 | 4.0 | 0.00 | 0.00 | 0.00 | 97 | 1014.8 |
| 20260906104207 | 49 | 346 | 1.0 | 2.0 | 0.00 | 0.00 | 0.00 | 97 | 1014.7 |
| 20260906103928 | 49 | 346 | 1.0 | 4.0 | 0.00 | 0.00 | 0.00 | 97 | 1014.6 |
| 20260906103201 | 49 | 346 | 1.0 | 4.0 | 0.00 | 0.00 | 0.00 | 97 | 1014.5 |
| 20260906102701 | 48 | 342 | 1.0 | 3.0 | 0.00 | 0.00 | 0.00 | 97 | 1014.5 |
| 20260906102159 | 48 | 348 | 1.0 | 3.0 | 0.00 | 0.00 | 0.00 | 97 | 1014.5 |
| 20260906101659 | 49 | 350 | 1.0 | 2.0 | 0.00 | 0.00 | 0.00 | 97 | 1014.4 |
| 20260906101159 | 49 | 350 | 1.0 | 2.0 | 0.00 | 0.00 | 0.00 | 97 | 1014.5 |
| 20260906100659 | 49 | 350 | 2.0 | 4.0 | 0.00 | 0.00 | 0.00 | 97 | 1014.4 |
| 20260906100155 | 49 | 350 | 1.0 | 4.0 | 0.00 | 0.00 | 0.00 | 97 | 1014.4 |
| 20260906095655 | 49 | 350 | 1.0 | 4.0 | 0.00 | 0.00 | 0.00 | 97 | 1014.4 |
| 20260906095155 | 49 | 350 | 2.0 | 6.0 | 0.00 | 0.00 | 0.00 | 97 | 1014.2 |
| 20260906094912 | 49 | 313 | 1.0 | 6.0 | 0.00 | 0.00 | 0.00 | 97 | 1014.2 |
| 20260906094154 | 49 | 277 | 0.0 | 2.0 | 0.00 | 0.00 | 0.00 | 97 | 1014.2 |
| 20260906093417 | 49 | 277 | 0.0 | 2.0 | 0.00 | 0.00 | 0.00 | 97 | 1014.1 |
| 20260906092654 | 49 | 277 | 0.0 | 2.0 | 0.00 | 0.00 | 0.00 | 97 | 1014.2 |
| 20260906092155 | 49 | 277 | 1.0 | 2.0 | 0.00 | 0.00 | 0.00 | 97 | 1014.1 |
| 20260906091654 | 49 | 277 | 1.0 | 2.0 | 0.00 | 0.00 | 0.00 | 97 | 1014.2 |
| 20260906091419 | 50 | 332 | 1.0 | 3.0 | 0.00 | 0.00 | 0.00 | 96 | 1014.1 |
| 20260906090917 | 50 | 332 | 1.0 | 4.0 | 0.00 | 0.00 | 0.00 | 96 | 1014.1 |
| 20260906090155 | 50 | 332 | 0.0 | 4.0 | 0.00 | 0.00 | 0.00 | 96 | 1014.0 |
| 20260906085654 | 51 | 17 | 1.0 | 4.0 | 0.00 | 0.00 | 0.00 | 96 | 1013.9 |
| 20260906085155 | 51 | 17 | 1.0 | 4.0 | 0.00 | 0.00 | 0.00 | 96 | 1014.0 |
| 20260906084656 | 51 | 17 | 1.0 | 3.0 | 0.00 | 0.00 | 0.00 | 97 | 1013.9 |
| 20260906084154 | 51 | 17 | 2.0 | 3.0 | 0.00 | 0.00 | 0.00 | 97 | 1013.8 |
| 20260906083654 | 51 | 17 | 2.0 | 4.0 | 0.00 | 0.00 | 0.00 | 97 | 1013.7 |
| 20260906083155 | 51 | 24 | 2.0 | 7.0 | 0.00 | 0.00 | 0.00 | 97 | 1013.7 |
| 20260906082652 | 51 | 26 | 2.0 | 7.0 | 0.00 | 0.00 | 0.00 | 97 | 1013.7 |
| 20260906082153 | 51 | 348 | 2.0 | 4.0 | 0.00 | 0.00 | 0.00 | 97 | 1013.6 |
| 20260906081651 | 51 | 322 | 2.0 | 5.0 | 0.00 | 0.00 | 0.00 | 97 | 1013.6 |
| 20260906081150 | 51 | 0 | 2.0 | 5.0 | 0.00 | 0.00 | 0.00 | 97 | 1013.5 |
| 20260906080652 | 51 | 338 | 1.0 | 4.0 | 0.00 | 0.00 | 0.00 | 97 | 1013.5 |
| 20260906080151 | 51 | 9 | 1.0 | 4.0 | 0.00 | 0.00 | 0.00 | 97 | 1013.6 |
| 20260906075650 | 51 | 9 | 1.0 | 4.0 | 0.00 | 0.00 | 0.00 | 97 | 1013.6 |
| 20260906075150 | 51 | 17 | 1.0 | 3.0 | 0.00 | 0.00 | 0.00 | 96 | 1013.6 |
| 20260906074916 | 51 | 11 | 1.0 | 3.0 | 0.00 | 0.00 | 0.00 | 97 | 1013.6 |
| 20260906074149 | 51 | 11 | 1.0 | 4.0 | 0.00 | 0.00 | 0.00 | 97 | 1013.6 |
| 20260906073648 | 52 | 11 | 1.0 | 4.0 | 0.00 | 0.00 | 0.00 | 97 | 1013.5 |
| 20260906073148 | 52 | 342 | 1.0 | 5.0 | 0.00 | 0.00 | 0.00 | 96 | 1013.5 |
| 20260906072649 | 52 | 342 | 2.0 | 5.0 | 0.00 | 0.00 | 0.00 | 96 | 1013.5 |
| 20260906072150 | 52 | 30 | 2.0 | 5.0 | 0.00 | 0.00 | 0.00 | 96 | 1013.5 |
| 20260906071647 | 52 | 56 | 1.0 | 5.0 | 0.00 | 0.00 | 0.00 | 96 | 1013.5 |
| 20260906071145 | 52 | 307 | 1.0 | 3.0 | 0.00 | 0.00 | 0.00 | 96 | 1013.4 |
| 20260906070642 | 52 | 344 | 1.0 | 3.0 | 0.00 | 0.00 | 0.00 | 96 | 1013.3 |
| 20260906070141 | 52 | 344 | 1.0 | 3.0 | 0.00 | 0.00 | 0.00 | 96 | 1013.3 |
| 20260906065638 | 52 | 344 | 0.0 | 3.0 | 0.00 | 0.00 | 0.00 | 96 | 1013.2 |
| 20260906065139 | 52 | 344 | 0.0 | 2.0 | 0.00 | 0.00 | 0.00 | 96 | 1013.1 |
| 20260906064636 | 53 | 344 | 0.0 | 2.0 | 0.00 | 0.00 | 0.00 | 96 | 1013.2 |
| 20260906064136 | 53 | 344 | 1.0 | 2.0 | 0.00 | 0.00 | 0.00 | 96 | 1013.2 |
| 20260906063637 | 53 | 345 | 1.0 | 3.0 | 0.00 | 0.00 | 0.00 | 95 | 1013.2 |
| 20260906063126 | 53 | 345 | 0.0 | 3.0 | 0.00 | 0.00 | 0.00 | 95 | 1013.3 |
| 20260906062620 | 53 | 346 | 0.0 | 2.0 | 0.00 | 0.00 | 0.00 | 95 | 1013.3 |
| 20260906062340 | 54 | 346 | 0.0 | 1.0 | 0.00 | 0.00 | 0.00 | 95 | 1013.3 |
| 20260906061605 | 54 | 346 | 0.0 | 2.0 | 0.00 | 0.00 | 0.00 | 95 | 1013.3 |
| 20260906061059 | 54 | 346 | 0.0 | 2.0 | 0.00 | 0.00 | 0.00 | 95 | 1013.3 |
| 20260906060553 | 54 | 346 | 1.0 | 2.0 | 0.00 | 0.00 | 0.00 | 95 | 1013.3 |
| 20260906060044 | 55 | 346 | 0.0 | 2.0 | 0.00 | 0.00 | 0.00 | 94 | 1013.3 |
| 20260906055537 | 55 | 346 | 0.0 | 1.0 | 0.00 | 0.00 | 0.00 | 94 | 1013.3 |
| 20260906055032 | 55 | 346 | 0.0 | 0.0 | 0.00 | 0.00 | 0.00 | 94 | 1013.4 |
| 20260906054520 | 55 | 346 | 0.0 | 1.0 | 0.00 | 0.00 | 0.00 | 95 | 1013.4 |
| 20260906054014 | 55 | 346 | 0.0 | 1.0 | 0.00 | 0.00 | 0.00 | 95 | 1013.4 |
| 20260906053509 | 55 | 346 | 0.0 | 0.0 | 0.00 | 0.00 | 0.00 | 95 | 1013.3 |
| 20260906053222 | 55 | 346 | 0.0 | 0.0 | 0.00 | 0.00 | 0.00 | 95 | 1013.3 |
| 20260906052452 | 55 | 346 | 0.0 | 0.0 | 0.00 | 0.00 | 0.00 | 95 | 1013.3 |
| 20260906051947 | 55 | 346 | 0.0 | 0.0 | 0.00 | 0.00 | 0.00 | 95 | 1013.3 |
| 20260906051436 | 55 | 346 | 0.0 | 0.0 | 0.00 | 0.00 | 0.00 | 95 | 1013.4 |
| 20260906050931 | 55 | 346 | 0.0 | 0.0 | 0.00 | 0.00 | 0.00 | 95 | 1013.3 |
| 20260906050425 | 55 | 346 | 0.0 | 0.0 | 0.00 | 0.00 | 0.00 | 95 | 1013.3 |
| 20260906045915 | 55 | 346 | 0.0 | 0.0 | 0.00 | 0.00 | 0.00 | 95 | 1013.3 |
| 20260906045409 | 55 | 346 | 0.0 | 1.0 | 0.00 | 0.00 | 0.00 | 95 | 1013.3 |
| 20260906044903 | 55 | 346 | 0.0 | 1.0 | 0.00 | 0.00 | 0.00 | 95 | 1013.3 |
| 20260906044353 | 55 | 346 | 0.0 | 0.0 | 0.00 | 0.00 | 0.00 | 94 | 1013.3 |
| 20260906043847 | 55 | 346 | 0.0 | 1.0 | 0.00 | 0.00 | 0.00 | 94 | 1013.3 |
| 20260906043341 | 55 | 346 | 0.0 | 1.0 | 0.00 | 0.00 | 0.00 | 94 | 1013.3 |
| 20260906042831 | 55 | 346 | 0.0 | 1.0 | 0.00 | 0.00 | 0.00 | 94 | 1013.4 |
| 20260906042325 | 55 | 346 | 0.0 | 0.0 | 0.00 | 0.00 | 0.00 | 94 | 1013.4 |
| 20260906041820 | 55 | 346 | 0.0 | 2.0 | 0.00 | 0.00 | 0.00 | 94 | 1013.4 |
| 20260906041309 | 55 | 346 | 1.0 | 2.0 | 0.00 | 0.00 | 0.00 | 94 | 1013.4 |
| 20260906041026 | 55 | 346 | 0.0 | 2.0 | 0.00 | 0.00 | 0.00 | 94 | 1013.4 |
| 20260906040257 | 55 | 346 | 0.0 | 1.0 | 0.00 | 0.00 | 0.00 | 93 | 1013.3 |
| 20260906035747 | 56 | 346 | 0.0 | 1.0 | 0.00 | 0.00 | 0.00 | 93 | 1013.3 |
| 20260906035240 | 56 | 346 | 0.0 | 1.0 | 0.00 | 0.00 | 0.00 | 93 | 1013.3 |
| 20260906035001 | 56 | 346 | 0.0 | 3.0 | 0.00 | 0.00 | 0.00 | 93 | 1013.3 |
| 20260906034223 | 56 | 346 | 0.0 | 3.0 | 0.00 | 0.00 | 0.00 | 93 | 1013.3 |
| 20260906033211 | 56 | 346 | 1.0 | 4.0 | 0.00 | 0.00 | 0.00 | 92 | 1013.3 |
| 20260906032701 | 56 | 347 | 1.0 | 4.0 | 0.00 | 0.00 | 0.00 | 92 | 1013.3 |
| 20260906032154 | 57 | 299 | 1.0 | 4.0 | 0.00 | 0.00 | 0.00 | 92 | 1013.2 |
| 20260906031649 | 57 | 299 | 1.0 | 4.0 | 0.00 | 0.00 | 0.00 | 92 | 1013.2 |
| 20260906030632 | 58 | 313 | 0.0 | 3.0 | 0.00 | 0.00 | 0.00 | 90 | 1013.1 |
| 20260906030127 | 58 | 324 | 0.0 | 4.0 | 0.00 | 0.00 | 0.00 | 89 | 1013.1 |
| 20260906025617 | 58 | 324 | 1.0 | 4.0 | 0.00 | 0.00 | 0.00 | 89 | 1013.1 |
| 20260906025111 | 58 | 324 | 2.0 | 4.0 | 0.00 | 0.00 | 0.00 | 89 | 1013.3 |
| 20260906024605 | 58 | 0 | 1.0 | 4.0 | 0.00 | 0.00 | 0.00 | 89 | 1013.3 |
| 20260906024054 | 58 | 350 | 1.0 | 3.0 | 0.00 | 0.00 | 0.00 | 90 | 1013.3 |
| 20260906023309 | 58 | 351 | 1.0 | 5.0 | 0.00 | 0.00 | 0.00 | 89 | 1013.3 |
| 20260906022533 | 58 | 355 | 1.0 | 5.0 | 0.00 | 0.00 | 0.00 | 89 | 1013.3 |
| 20260906022027 | 59 | 59 | 2.0 | 5.0 | 0.00 | 0.00 | 0.00 | 89 | 1013.2 |
| 20260906021521 | 59 | 71 | 2.0 | 6.0 | 0.00 | 0.00 | 0.00 | 89 | 1013.2 |
| 20260906021011 | 59 | 355 | 2.0 | 6.0 | 0.00 | 0.00 | 0.00 | 89 | 1013.1 |
| 20260906020505 | 58 | 18 | 2.0 | 6.0 | 0.00 | 0.00 | 0.00 | 90 | 1013.1 |
| 20260906015958 | 58 | 355 | 1.0 | 6.0 | 0.00 | 0.00 | 0.00 | 90 | 1013.2 |
| 20260906015449 | 58 | 24 | 1.0 | 5.0 | 0.00 | 0.00 | 0.00 | 91 | 1013.1 |
| 20260906014943 | 58 | 24 | 1.0 | 5.0 | 0.00 | 0.00 | 0.00 | 91 | 1013.1 |
| 20260906014437 | 58 | 348 | 1.0 | 4.0 | 0.00 | 0.00 | 0.00 | 92 | 1013.1 |
| 20260906013927 | 58 | 336 | 1.0 | 3.0 | 0.00 | 0.00 | 0.00 | 92 | 1013.0 |
| 20260906013421 | 58 | 350 | 1.0 | 4.0 | 0.00 | 0.00 | 0.00 | 93 | 1013.2 |
| 20260906012915 | 58 | 351 | 1.0 | 4.0 | 0.00 | 0.00 | 0.00 | 93 | 1013.1 |
| 20260906012405 | 58 | 355 | 1.0 | 3.0 | 0.00 | 0.00 | 0.00 | 93 | 1013.1 |
| 20260906011900 | 58 | 284 | 1.0 | 3.0 | 0.00 | 0.00 | 0.00 | 94 | 1013.2 |
| 20260906011353 | 58 | 5 | 1.0 | 2.0 | 0.00 | 0.00 | 0.00 | 93 | 1013.3 |
| 20260906010843 | 58 | 5 | 0.0 | 2.0 | 0.00 | 0.00 | 0.00 | 93 | 1013.3 |
| 20260906010337 | 58 | 5 | 0.0 | 1.0 | 0.00 | 0.00 | 0.00 | 93 | 1013.2 |
| 20260906005831 | 58 | 5 | 0.0 | 1.0 | 0.00 | 0.00 | 0.00 | 92 | 1013.2 |
| 20260906005321 | 58 | 5 | 0.0 | 2.0 | 0.00 | 0.00 | 0.00 | 91 | 1013.1 |
| 20260906004535 | 58 | 5 | 0.0 | 1.0 | 0.00 | 0.00 | 0.00 | 90 | 1013.0 |
| 20260906003759 | 59 | 5 | 1.0 | 3.0 | 0.00 | 0.00 | 0.00 | 90 | 1013.0 |
| 20260906003253 | 59 | 5 | 1.0 | 3.0 | 0.00 | 0.00 | 0.00 | 90 | 1012.9 |
| 20260906003007 | 58 | 5 | 1.0 | 4.0 | 0.00 | 0.00 | 0.00 | 90 | 1012.9 |
| 20260906002237 | 58 | 347 | 0.0 | 4.0 | 0.00 | 0.00 | 0.00 | 91 | 1012.9 |
| 20260906001733 | 59 | 22 | 0.0 | 2.0 | 0.00 | 0.00 | 0.00 | 90 | 1012.8 |
| 20260906001225 | 59 | 22 | 0.0 | 2.0 | 0.00 | 0.00 | 0.00 | 90 | 1012.7 |
| 20260906000715 | 59 | 22 | 1.0 | 2.0 | 0.00 | 0.00 | 0.00 | 89 | 1012.6 |
| 20260906000209 | 60 | 22 | 1.0 | 4.0 | 0.00 | 0.00 | 0.00 | 88 | 1012.7 |
| 20260905235703 | 60 | 355 | 2.0 | 8.0 | 0.00 | 0.00 | 0.00 | 87 | 1012.7 |
| 20260905235153 | 60 | 75 | 3.0 | 8.0 | 0.00 | 0.00 | 0.00 | 88 | 1012.6 |
| 20260905234652 | 60 | 42 | 2.0 | 5.0 | 0.00 | 0.00 | 0.00 | 88 | 1012.6 |
| 20260905234141 | 60 | 62 | 2.0 | 5.0 | 0.00 | 0.00 | 0.00 | 88 | 1012.7 |
| 20260905233631 | 60 | 80 | 2.0 | 4.0 | 0.00 | 0.00 | 0.00 | 88 | 1012.6 |
| 20260905233350 | 60 | 77 | 2.0 | 4.0 | 0.00 | 0.00 | 0.00 | 88 | 1012.6 |
| 20260905232837 | 60 | 5 | 1.0 | 4.0 | 0.00 | 0.00 | 0.00 | 87 | 1012.6 |
| 20260905232326 | 61 | 5 | 2.0 | 7.0 | 0.00 | 0.00 | 0.00 | 87 | 1012.7 |
| 20260905231833 | 61 | 0 | 2.0 | 7.0 | 0.00 | 0.00 | 0.00 | 86 | 1012.6 |